PLATFORM,ARGOS_ID,DATE (YYYY/MM/DD HH:MI:SS),LATITUDE (degree_north),LONGITUDE (degree_east),TEMP (degree_Celsius),EWCT (meter/second),NSCT (meter/second),TEMP LEVEL0 (degree_Celsius),EWCT LEVEL1 (meter/second),NSCT LEVEL1 (meter/second),QC,SVP_RCBN_Number,SVP_GNRL_ImmPercent,SVP_GNRL_BattVolt
IF000189,66562,2006/09/07 06:04:15,48.3594,-4.5594,,,,18.04,,,00144999499,8,0,12.4
IF000189,66562,2006/09/07 07:00:07,48.3594,-4.5593,,,,18.04,0.002204,0,00144999400,9,0,12.4
IF000189,66562,2006/09/07 08:00:07,48.3595,-4.5593,,,,17.8,0,0.003089,00144999400,4,0,12.4
IF000189,66562,2006/09/07 09:00:40,48.3594,-4.5594,,,,18.04,-0.002034,-0.003061,00144999400,6,0,12.4
IF000189,66562,2006/09/07 10:00:16,48.3594,-4.5594,,,,18.6,0,0,00144999400,6,0,12.4
IF000189,66562,2006/09/07 11:00:40,48.3593,-4.5593,,,,19.32,0.002039,-0.003068,00144999400,7,0,12.4
IF000189,66562,2006/09/07 12:00:11,48.3594,-4.5593,,,,21.24,0,0.003114,00144999400,5,0,12.4
IF000189,66562,2006/09/07 13:00:17,48.3593,-4.5592,,,,21.56,0.002049,-0.003084,00144999400,1,0,12.4
IF000189,66562,2006/09/07 14:00:40,48.3593,-4.5594,,,,21.24,-0.004079,0,00144999400,4,0,12.4
IF000189,66562,2006/09/07 15:00:06,48.3594,-4.5594,,,,22.2,0,0.003118,00144999400,5,0,12.4
IF000189,66562,2006/09/07 16:00:11,48.3593,-4.5594,,,,22.04,0,-0.003084,00144999400,5,0,12.4
IF000189,66562,2006/09/07 17:00:40,48.3594,-4.5593,,,,18.68,0.002036,0.003064,00144999400,1,0,12.4
IF000189,66562,2006/09/07 18:00:16,48.3594,-4.5594,,,,16.44,-0.002066,0,00144999400,1,0,12.4
IF000189,66562,2006/09/07 19:00:40,48.3594,-4.5593,,,,15.08,0.002039,0,00144999400,1,0,12.4
IF000189,66562,2006/09/07 20:00:14,48.3595,-4.5594,,,,14.52,-0.002067,0.003111,00144999400,1,0,12.4
IF000189,66562,2006/09/07 21:00:16,48.3594,-4.5595,,,,14.28,-0.002051,-0.003087,00144999400,1,0,12.4
IF000189,66562,2006/09/07 22:00:40,48.3594,-4.5593,,,,14.36,0.004077,0,00144999400,4,0,12.4
IF000189,66562,2006/09/07 23:00:10,48.3593,-4.5594,,,,14.52,-0.00207,-0.003115,00144999400,1,0,12.4
IF000189,66562,2006/09/08 00:00:10,48.3594,-4.5594,,,,14.04,0,0.003089,00144999400,3,0,12.4
IF000189,66562,2006/09/08 01:00:40,48.3594,-4.5594,,,,13.56,0,0,00144999400,3,0,12.4
IF000189,66562,2006/09/08 02:00:11,48.3595,-4.5594,,,,13.4,0,0.003114,00144999400,3,0,12.4
IF000189,66562,2006/09/08 03:00:16,48.3595,-4.5594,,,,13.64,0,0,00144999400,5,0,12.4
IF000189,66562,2006/09/08 04:00:40,48.3593,-4.5594,,,,13.8,0,-0.006137,00144999400,6,0,12.4
IF000189,66562,2006/09/08 05:00:10,48.3594,-4.5598,,,,13.16,-0.008278,0.003115,00144999400,3,0,12.4
IF000189,66562,2006/09/08 06:00:10,48.3595,-4.5597,,,,12.84,0.002052,0.003089,00144999400,3,0,12.4
IF000189,66562,2006/09/08 07:00:36,48.3594,-4.5593,,,,13.24,0.00815,-0.003067,00144999400,6,0,12.4
IF000189,66562,2006/09/08 08:00:16,48.3593,-4.5592,,,,14.84,0.002064,-0.003106,00144999400,6,0,12.4
IF000189,66562,2006/09/08 09:00:40,48.3594,-4.5594,,,,15.88,-0.004077,0.003068,00144999400,4,0,12.4
IF000189,66562,2006/09/08 10:00:16,48.3594,-4.5594,,,,18.28,0,0,00144999400,6,0,12.4
IF000189,66562,2006/09/08 11:00:40,48.3594,-4.5594,,,,20.52,0,0,00144999400,6,0,12.4
IF000189,66562,2006/09/08 12:00:06,48.3595,-4.5591,,,,23.64,0.006216,0.003118,00144999400,1,0,12.4
IF000189,66562,2006/09/08 13:00:16,48.3594,-4.5593,,,,21.64,-0.004093,-0.00308,00144999400,3,0,12.4
IF000189,66562,2006/09/08 14:00:35,48.3594,-4.5593,,,,21.32,0,0,00144999400,6,0,12.4
IF000189,66562,2006/09/08 15:00:16,48.3594,-4.5592,,,,28.52,0.002063,0,00144999400,3,0,12.4
IF000189,66562,2006/09/08 16:00:11,48.3594,-4.5593,,,,29.88,-0.002055,0,00144999400,4,0,12.4
IF000189,66562,2006/09/08 17:00:40,48.3594,-4.5594,,,,23.64,-0.002036,0,00144999400,1,0,12.4
IF000189,66562,2006/09/08 18:00:10,48.3594,-4.5594,,,,20.2,0,0,00144999400,3,0,12.4
IF000189,66562,2006/09/08 19:00:40,48.3591,-4.5596,,,,18.2,-0.004071,-0.00919,00144999400,3,0,12.4
IF000189,66562,2006/09/08 20:00:16,48.3598,-4.5598,,,,17.24,-0.004132,0.021766,00144999400,3,0,12.4
IF000189,66562,2006/09/08 21:00:10,48.3589,-4.5586,,,,16.68,0.024669,-0.027845,00144999400,3,0,12.4
IF000189,66562,2006/09/08 22:00:40,48.3594,-4.5593,,,,15.96,-0.014248,0.015316,00144999400,1,0,12.4
IF000189,66562,2006/09/08 23:00:10,48.3594,-4.5594,,,,15.8,-0.00207,0,00144999400,4,0,12.4
IF000189,66562,2006/09/09 00:00:40,48.3594,-4.5594,,,,15.24,0,0,00144999400,4,0,12.4
IF000189,66562,2006/09/09 01:00:16,48.3594,-4.5597,,,,15,-0.006198,0,00144999400,1,0,12.4
IF000189,66562,2006/09/09 02:00:40,48.3594,-4.5593,,,,14.84,0.008155,0,00144999400,4,0,12.4
IF000189,66562,2006/09/09 03:00:06,48.3595,-4.5591,,,,14.92,0.004144,0.003118,00144999400,4,0,12.4
IF000189,66562,2006/09/09 04:00:10,48.3594,-4.5593,,,,15.4,-0.0041,-0.003085,00144999400,3,0,12.4
IF000189,66562,2006/09/09 05:00:22,48.3594,-4.5594,,,,15.4,-0.002046,0,00144999400,1,0,12.4
IF000189,66562,2006/09/09 06:00:40,48.3594,-4.5594,,,,15.32,0,0,00144999400,4,0,12.4
IF000189,66562,2006/09/09 07:00:16,48.3594,-4.5594,,,,14.92,0,0,00144999400,4,0,12.4
IF000189,66562,2006/09/09 08:00:16,48.3593,-4.5593,,,,16.6,0.002052,-0.003089,00144999400,5,0,12.4
IF000189,66562,2006/09/09 09:00:40,48.3593,-4.5593,,,,17.64,0,0,00144999400,4,0,12.4
IF000189,66562,2006/09/09 10:00:16,48.3594,-4.5593,,,,19.24,0,0.003109,00144999400,6,0,12.4
IF000189,66562,2006/09/09 11:00:39,48.3593,-4.5593,,,,24.28,0,-0.003069,00144999400,8,0,12.4
IF000189,66562,2006/09/09 12:00:11,48.3593,-4.5594,,,,26.84,-0.002068,0,00144999400,4,0,12.4
IF000189,66562,2006/09/09 13:00:31,48.3594,-4.5594,,,,24.2,0,0.003072,00144999400,1,0,12.4
IF000189,66562,2006/09/09 14:00:10,48.3593,-4.5594,,,,22.36,0,-0.003107,00144999400,3,0,12.4
IF000189,66562,2006/09/09 15:00:06,48.3595,-4.5593,,,,28.36,0.002055,0.006184,00144999400,5,0,12.3
IF000189,66562,2006/09/09 16:00:35,48.3595,-4.5593,,,,24.76,0,0,00144999400,1,0,12.3
IF000189,66562,2006/09/09 17:00:16,48.3594,-4.5593,,,,22.36,0,-0.003105,00144999400,3,0,12.3
IF000189,66562,2006/09/09 18:00:40,48.3595,-4.5593,,,,21.56,0,0.003068,00144999400,3,0,12.3
IF000189,66562,2006/09/09 19:00:16,48.3596,-4.5591,,,,19,0.004132,0.003109,00144999400,1,0,12.3
IF000189,66562,2006/09/09 20:00:28,48.3591,-4.5590,,,,18.28,0.002046,-0.015392,00144999400,1,0,12.3
IF000189,66562,2006/09/09 21:00:11,48.3596,-4.5598,,,,17.32,-0.016497,0.015517,00144999400,1,0,12.3
IF000189,66562,2006/09/09 22:00:40,48.3594,-4.5594,,,,15.96,0.008144,-0.006128,00144999400,5,0,12.3
IF000189,66562,2006/09/09 23:00:10,48.3594,-4.5594,,,,15.16,0,0,00144999400,4,0,12.3
IF000189,66562,2006/09/10 00:00:10,48.3594,-4.5595,,,,15.56,-0.002052,0,00144999400,5,0,12.3
IF000189,66562,2006/09/10 01:00:40,48.3594,-4.5593,,,,15.64,0.004071,0,00144999400,6,0,12.3
IF000189,66562,2006/09/10 02:00:10,48.3595,-4.5593,,,,14.84,0,0.003115,00144999400,4,0,12.3
IF000189,66562,2006/09/10 03:00:16,48.3596,-4.5595,,,,15,-0.004098,0.003084,00144999400,3,0,12.3
IF000189,66562,2006/09/10 04:00:40,48.3594,-4.5593,,,,15.8,0.004077,-0.006137,00144999400,4,0,12.3
IF000189,66562,2006/09/10 05:00:16,48.3594,-4.5593,,,,15.96,0,0,00144999400,5,0,12.3
IF000189,66562,2006/09/10 06:00:05,48.3594,-4.5594,,,,15.64,-0.002059,0,00144999400,1,0,12.3
IF000189,66562,2006/09/10 07:00:07,48.3592,-4.5590,,,,16.44,0.008205,-0.006174,00144999400,4,0,12.3
IF000189,66562,2006/09/10 08:00:40,48.3594,-4.5591,,,,16.52,-0.002034,0.006121,00144999400,4,0,12.2
IF000189,66562,2006/09/10 09:00:10,48.3594,-4.5593,,,,18.2,-0.004139,0,00144999400,1,0,12.3
IF000189,66562,2006/09/10 10:00:40,48.3594,-4.5593,,,,20.68,0,0,00144999400,3,0,12.3
IF000189,66562,2006/09/10 11:00:06,48.3596,-4.5594,,,,21.08,-0.002072,0.006236,00144999400,3,0,12.3
IF000189,66562,2006/09/10 12:00:10,48.3593,-4.5593,,,,21.64,0.00205,-0.009256,00144999400,6,0,12.3
IF000189,66562,2006/09/10 14:00:00,48.0865,-4.2471,,,,27,3.21715,-4.21907,00144999400,3,0,12.3
IF000189,66562,2006/09/10 15:00:00,47.9345,-4.0732,,,,26.84,3.59236,-4.69366,00144999400,3,0,12.3
IF000189,66562,2006/09/10 16:00:00,47.7826,-3.8994,,,,27.96,3.60293,-4.69335,00144999400,1,0,12.3
IF000189,66562,2006/09/10 19:00:00,47.3267,-3.3778,,,,28.2,3.62414,-4.69346,00144999400,1,0,12.3
IF000189,66562,2006/09/10 21:00:00,47.0228,-3.0301,,,,27,3.65019,-4.69335,00144999400,1,0,12.3
IF000189,66562,2006/09/10 22:00:00,46.8709,-2.8562,,,,25.48,3.66604,-4.69366,00144999400,1,0,12.3
IF000189,66562,2006/09/11 01:00:00,46.4150,-2.3347,,,,22.92,3.68666,-4.69335,00144999400,1,0,12.3
IF000189,66562,2006/09/11 02:00:00,46.2630,-2.1608,,,,22.44,3.70725,-4.69366,00144999400,1,0,12.3
IF000189,66562,2006/09/11 03:00:00,46.1111,-1.9870,,,,22.12,3.71754,-4.69335,00144999400,1,0,12.3
IF000189,66562,2006/09/11 04:00:00,45.9592,-1.8131,,,,21.72,3.72801,-4.69335,00144999400,3,0,12.3
IF000189,66562,2006/09/11 05:00:00,45.8072,-1.6393,,,,21.48,3.73804,-4.69335,00144999400,5,0,12.3
IF000189,66562,2006/09/11 06:00:00,45.6552,-1.4654,,,,21.16,3.74846,-4.69366,00144999400,3,0,12.3
IF000189,66562,2006/09/11 07:00:00,45.5033,-1.2915,,,,21.24,3.75843,-4.69335,00144999400,3,0,12.3
IF000189,66562,2006/09/11 08:00:00,45.3513,-1.1177,,,,22.6,3.76859,-4.69335,00144999400,1,0,12.3
IF000189,66562,2006/09/11 09:00:00,45.1994,-0.9438,,,,23.56,3.77894,-4.69335,00144999400,4,0,12.3
IF000189,66562,2006/09/11 10:01:38,44.8597,-0.5534,,,,27.64,8.29723,-10.2141,00144999400,4,0,12.3
IF000189,66562,2006/09/11 11:00:39,44.8646,-0.5433,,,,29.16,0.224806,0.15387,00144999400,9,0,12.3
IF000189,66562,2006/09/11 12:00:12,45.0646,-0.6403,,,,35.08,-2.13588,6.22418,00144999400,7,0,12.3
IF000189,66562,2006/09/11 13:00:41,45.2977,-0.7653,,,,33.24,-2.6997,7.14234,00144999400,10,0,12.3
IF000189,66562,2006/09/11 14:00:11,45.4760,-0.9299,,,,27.88,-3.60064,5.55352,00144999400,7,0,12.3
IF000189,66562,2006/09/11 15:00:08,45.6004,-1.0655,,,,26.92,-2.9361,3.84561,00144999400,9,0,12.3
IF000189,66562,2006/09/11 16:00:41,45.6555,-1.2463,,,,23.8,-3.86982,1.68644,00144999400,6,0,12.3
IF000189,66562,2006/09/11 17:00:45,45.6608,-1.4816,,,,23,-5.07412,0.163522,00144999400,1,0,12.3
IF000189,66562,2006/09/11 18:00:41,45.6653,-1.4927,,,,22.6,-0.239877,0.139148,00144999400,1,0,12.3
IF000189,66562,2006/09/11 19:00:11,45.6624,-1.4874,,,,22.44,0.115368,-0.090326,00111999100,1,0,12.3
IF000189,66562,2006/09/11 20:00:41,45.6567,-1.4881,,,,22.36,-0.014987,-0.174604,00111999100,1,0,12.3
IF000189,66562,2006/09/11 21:00:12,45.6504,-1.4934,,,,22.28,-0.115357,-0.196171,00111999100,3,0,12.3
IF000189,66562,2006/09/11 22:00:18,45.6439,-1.5043,,,,22.28,-0.234968,-0.200435,00111999100,5,0,12.3
IF000189,66562,2006/09/11 23:00:36,45.6396,-1.5182,,,,22.28,-0.298674,-0.132155,00111999100,7,4,12.3
IF000189,66562,2006/09/12 00:00:11,45.6404,-1.5301,,,,22.28,-0.258783,0.024883,00111999100,9,22,12.3
IF000189,66562,2006/09/12 01:00:11,45.6476,-1.5353,,,,22.2,-0.112288,0.22239,00111999100,4,7,12.3
IF000189,66562,2006/09/12 02:00:41,45.6598,-1.5340,,,,22.2,0.027835,0.373713,00111999100,5,28,12.3
IF000189,66562,2006/09/12 03:00:11,45.6717,-1.5282,,,,22.2,0.126248,0.37065,00111999100,4,7,12.3
IF000189,66562,2006/09/12 04:00:11,45.6801,-1.5212,,,,22.2,0.151071,0.259455,00111999100,7,0,12.3
IF000189,66562,2006/09/12 05:00:07,45.6846,-1.5145,,,,22.2,0.144741,0.139148,00111999100,10,15,12.3
IF000189,66562,2006/09/12 06:00:40,45.6864,-1.5101,,,,22.2,0.09408,0.055092,00111999100,5,95,12.3
IF000189,66562,2006/09/12 07:00:12,45.6861,-1.5079,,,,22.2,0.047843,-0.009339,00111999100,11,100,12.3
IF000189,66562,2006/09/12 08:00:12,45.6848,-1.5085,,,,22.12,-0.012947,-0.040154,00111999100,9,100,12.3
IF000189,66562,2006/09/12 09:00:41,45.6824,-1.5135,,,,22.2,-0.107031,-0.073538,00111999100,10,100,12.3
IF000189,66562,2006/09/12 10:00:11,45.6798,-1.5218,,,,22.2,-0.180616,-0.080982,00111999100,7,93,12.3
IF000189,66562,2006/09/12 11:00:41,45.6782,-1.5344,,,,22.28,-0.269666,-0.049012,00111999100,8,80,12.3
IF000189,66562,2006/09/12 12:00:11,45.6791,-1.5465,,,,22.36,-0.263319,0.028032,00111999100,8,79,12.3
IF000189,66562,2006/09/12 13:00:11,45.6848,-1.5537,,,,22.44,-0.155371,0.176059,00111999100,5,34,12.3
IF000189,66562,2006/09/12 14:00:41,45.6957,-1.5553,,,,22.52,-0.034236,0.333891,00111999100,10,76,12.3
IF000189,66562,2006/09/12 15:00:11,45.7079,-1.5525,,,,22.44,0.060908,0.379994,00111999100,4,74,12.3
IF000189,66562,2006/09/12 16:00:11,45.7176,-1.5472,,,,22.44,0.114307,0.299609,00111999100,7,50,12.3
IF000189,66562,2006/09/12 17:00:12,45.7231,-1.5422,,,,22.44,0.107792,0.169834,00111999100,5,92,12.3
IF000189,66562,2006/09/12 18:00:41,45.7267,-1.5375,,,,22.36,0.100535,0.110306,00111999100,5,92,12.3
IF000189,66562,2006/09/12 19:00:11,45.7269,-1.5342,,,,22.36,0.071752,0.006229,00111999100,1,68,12.3
IF000189,66562,2006/09/12 20:00:41,45.7274,-1.5338,,,,22.28,0.008553,0.015316,00111999100,7,0,12.3
IF000189,66562,2006/09/12 21:00:11,45.7266,-1.5366,,,,22.28,-0.060881,-0.024918,00111999100,7,0,12.3
IF000189,66562,2006/09/12 22:00:11,45.7246,-1.5423,,,,22.28,-0.122906,-0.061775,00111999100,7,0,12.3
IF000189,66562,2006/09/12 23:00:06,45.7221,-1.5509,,,,22.28,-0.185702,-0.077326,00111999100,4,0,12.3
IF000189,66562,2006/09/13 00:00:41,45.7204,-1.5595,,,,22.2,-0.183666,-0.052003,00111999100,4,0,12.3
IF000189,66562,2006/09/13 01:00:11,45.7213,-1.5663,,,,22.2,-0.147869,0.028032,00111999100,7,0,12.3
IF000189,66562,2006/09/13 02:00:40,45.7277,-1.5692,,,,22.2,-0.062033,0.1961,00111999100,11,0,12.3
IF000189,66562,2006/09/13 03:00:12,45.7384,-1.5687,,,,22.2,0.010864,0.333087,00111999100,9,0,12.3
IF000189,66562,2006/09/13 04:00:12,45.7475,-1.5638,,,,22.2,0.105623,0.281076,00111999100,5,76,12.3
IF000189,66562,2006/09/13 05:00:07,45.7528,-1.5597,,,,22.2,0.08849,0.163931,00111999100,10,92,12.3
IF000189,66562,2006/09/13 06:00:41,45.7556,-1.5567,,,,22.2,0.064049,0.085676,00111999100,7,66,12.3
IF000189,66562,2006/09/13 07:00:11,45.7575,-1.5556,,,,22.2,0.023905,0.059179,00111999100,7,17,12.3
IF000189,66562,2006/09/13 08:00:11,45.7579,-1.5565,,,,22.2,-0.019395,0.012355,00111999100,8,15,12.3
IF000189,66562,2006/09/13 09:00:36,45.7575,-1.5596,,,,22.2,-0.066344,-0.01227,00111999100,7,90,12.3
IF000189,66562,2006/09/13 10:00:11,45.7564,-1.5662,,,,22.28,-0.143227,-0.034214,00111999100,8,100,12.3
IF000189,66562,2006/09/13 11:00:11,45.7548,-1.5738,,,,22.28,-0.163786,-0.04942,00111999100,8,95,12.3
IF000189,66562,2006/09/13 12:00:41,45.7537,-1.5830,,,,22.28,-0.196634,-0.033695,00111999100,7,100,12.3
IF000189,66562,2006/09/13 13:00:17,45.7549,-1.5922,,,,22.28,-0.199603,0.037314,00111999100,5,88,12.3
IF000189,66562,2006/09/13 14:00:41,45.7608,-1.5982,,,,22.28,-0.128443,0.181029,00111999100,5,98,12.3
IF000189,66562,2006/09/13 15:00:11,45.7702,-1.6002,,,,22.2,-0.043456,0.292782,00111999100,8,69,12.3
IF000189,66562,2006/09/13 16:00:11,45.7805,-1.6001,,,,22.2,0.002154,0.318141,00111999100,6,71,12.3
IF000189,66562,2006/09/13 17:00:41,45.7890,-1.5988,,,,22.2,0.02777,0.260374,00111999100,5,96,12.3
IF000189,66562,2006/09/13 18:00:11,45.7941,-1.5986,,,,22.2,0.004344,0.15885,00111999100,3,100,12.3
IF000189,66562,2006/09/13 19:00:12,45.7970,-1.5985,,,,22.2,0.002153,0.089549,00111999100,7,100,12.3
IF000189,66562,2006/09/13 20:00:41,45.7989,-1.5982,,,,22.12,0.006409,0.058217,00111999100,7,52,12.3
IF000189,66562,2006/09/13 21:00:11,45.8006,-1.5994,,,,22.12,-0.026058,0.05295,00111999100,7,47,12.3
IF000189,66562,2006/09/13 22:00:12,45.8009,-1.6022,,,,22.12,-0.060277,0.009264,00111999100,4,100,12.3
IF000189,66562,2006/09/13 23:00:36,45.7994,-1.6075,,,,22.04,-0.113372,-0.046024,00111999100,4,100,12.3
IF000189,66562,2006/09/14 00:00:11,45.7970,-1.6158,,,,22.04,-0.179985,-0.074648,00111999100,7,100,12.3
IF000189,66562,2006/09/14 01:00:11,45.7969,-1.6248,,,,21.96,-0.193814,-0.003089,00111999100,10,85,12.3
IF000189,66562,2006/09/14 02:00:41,45.7997,-1.6305,,,,21.96,-0.121731,0.08577,00111999100,10,15,12.3
IF000189,66562,2006/09/14 03:00:11,45.8063,-1.6308,,,,21.96,-0.006514,0.20557,00111999100,7,17,12.3
IF000189,66562,2006/09/14 04:00:11,45.8136,-1.6310,,,,21.96,-0.004306,0.225479,00111999100,9,33,12.3
IF000189,66562,2006/09/14 05:00:11,45.8197,-1.6308,,,,21.96,0.004305,0.188414,00111999100,8,63,12.3
IF000189,66562,2006/09/14 06:00:41,45.8238,-1.6305,,,,21.96,0.006404,0.125592,00111999100,6,87,12.3
IF000189,66562,2006/09/14 07:00:12,45.8258,-1.6302,,,,21.96,0.00651,0.062277,00111999100,4,69,12.3
IF000189,66562,2006/09/14 08:00:12,45.8264,-1.6305,,,,21.96,-0.006457,0.018532,00111999100,8,82,12.3
IF000189,66562,2006/09/14 09:00:41,45.8271,-1.6317,,,,21.96,-0.025622,0.021448,00111999100,13,100,12.3
IF000189,66562,2006/09/14 10:00:06,45.8274,-1.6333,,,,21.96,-0.034775,0.009357,00111999100,7,100,12.2
IF000189,66562,2006/09/14 11:00:59,45.8280,-1.6387,,,,21.96,-0.114538,0.018264,00111999100,6,100,12.2
IF000189,66562,2006/09/14 12:00:11,45.8273,-1.6450,,,,21.88,-0.137427,-0.021913,00111999100,7,100,12.2
IF000189,66562,2006/09/14 13:00:17,45.8256,-1.6530,,,,21.88,-0.171901,-0.052421,00111999100,5,100,12.2
IF000189,66562,2006/09/14 14:01:05,45.8250,-1.6589,,,,21.88,-0.12532,-0.018289,00111999100,5,100,12.2
IF000189,66562,2006/09/14 15:00:11,45.8259,-1.6601,,,,21.88,-0.026222,0.028222,00111999100,1,100,12.2
IF000189,66562,2006/09/14 16:00:12,45.8282,-1.6580,,,,21.8,0.045186,0.071021,00111999100,1,100,12.2
IF000189,66562,2006/09/14 17:01:05,45.8297,-1.6550,,,,21.8,0.063631,0.045659,00111999100,1,100,12.2
IF000189,66562,2006/09/14 19:03:11,45.8237,-1.6552,,,,21.64,-0.002115,-0.091069,00111999100,5,100,12.2
IF000189,66562,2006/09/14 20:00:10,45.8188,-1.6594,,,,21.64,-0.095193,-0.159361,00111999100,4,100,12.2
IF000189,66562,2006/09/14 21:00:14,45.8147,-1.6647,,,,21.56,-0.113968,-0.126498,00111999100,4,100,12.1
IF000189,66562,2006/09/14 22:00:41,45.8112,-1.6703,,,,21.48,-0.119663,-0.107301,00111999100,1,100,12.2
IF000189,66562,2006/09/14 23:00:17,45.8077,-1.6773,,,,21.4,-0.151722,-0.108832,00111999100,5,100,12.2
IF000189,66562,2006/09/15 00:00:18,45.8033,-1.6864,,,,21.4,-0.195883,-0.135867,00111999100,1,100,12.2
IF000189,66562,2006/09/15 01:01:29,45.7986,-1.6964,,,,21.32,-0.211168,-0.142363,00111999100,6,100,12.2
IF000189,66562,2006/09/15 02:00:12,45.7954,-1.7047,,,,21.32,-0.182646,-0.101,00111999100,5,100,12.2
IF000189,66562,2006/09/15 03:00:29,45.7934,-1.7111,,,,21.24,-0.137182,-0.061485,00111999100,4,100,12.2
IF000189,66562,2006/09/15 04:01:41,45.7939,-1.7135,,,,21.24,-0.050673,0.015141,00111999100,5,100,12.2
IF000189,66562,2006/09/15 05:00:11,45.7951,-1.7136,,,,21.16,-0.002209,0.038015,00111999100,4,100,12.2
IF000189,66562,2006/09/15 06:00:17,45.7956,-1.7127,,,,21.16,0.01935,0.015418,00111999100,4,100,12.2
IF000189,66562,2006/09/15 07:00:11,45.7947,-1.7118,,,,21.16,0.019414,-0.027845,00111999100,1,100,12.2
IF000189,66562,2006/09/15 08:01:28,45.7917,-1.7117,,,,21.08,0.002109,-0.090722,00111999100,6,100,12.2
IF000189,66562,2006/09/15 09:00:19,45.7887,-1.7110,,,,21.08,0.015371,-0.094473,00111999100,1,100,12.2
IF000189,66562,2006/09/15 10:00:00,45.7887,-1.7186,,,,21.08,-0.164991,-0.000311,00111999100,1,100,12.2
IF000189,66562,2006/09/15 11:01:32,45.7808,-1.7105,,,,21.08,0.170543,-0.237629,00111999100,1,100,12.2
IF000189,66562,2006/09/15 12:00:11,45.7752,-1.7125,,,,21.08,-0.044076,-0.176951,00111999100,6,100,12.2
IF000189,66562,2006/09/15 13:00:11,45.7689,-1.7150,,,,21.08,-0.053861,-0.194591,00111999100,5,100,12.2
IF000189,66562,2006/09/15 14:01:41,45.7613,-1.7190,,,,21.08,-0.084086,-0.229019,00111999100,5,100,12.2
IF000189,66562,2006/09/15 15:00:11,45.7543,-1.7243,,,,21.08,-0.117143,-0.221756,00111999100,6,100,12.2
IF000189,66562,2006/09/15 16:00:19,45.7493,-1.7274,,,,21,-0.066664,-0.154095,00111999100,4,100,12.2
IF000189,66562,2006/09/15 17:03:29,45.7456,-1.7296,,,,20.92,-0.045042,-0.108554,00111999100,3,100,12.2
IF000189,66562,2006/09/15 18:00:17,45.7428,-1.7307,,,,20.92,-0.025047,-0.091357,00111999100,4,100,12.2
IF000189,66562,2006/09/15 20:01:11,45.7352,-1.7356,,,,20.84,-0.052422,-0.116499,00111999100,1,100,12.2
IF000189,66562,2006/09/15 21:00:20,45.7305,-1.7373,,,,20.76,-0.037178,-0.147257,00111999100,1,100,12.2
IF000189,66562,2006/09/15 22:00:17,45.7252,-1.7393,,,,20.76,-0.043159,-0.16384,00111999100,1,100,12.2
IF000189,66562,2006/09/15 23:02:36,45.7192,-1.7424,,,,20.76,-0.064362,-0.178435,00111999100,1,100,12.2
IF000189,66562,2006/09/16 00:00:11,45.7148,-1.7458,,,,20.68,-0.076401,-0.141609,00111999100,3,100,12.2
IF000189,66562,2006/09/16 01:00:23,45.7098,-1.7506,,,,20.68,-0.10318,-0.153924,00111999100,1,100,12.2
IF000189,66562,2006/09/16 02:01:35,45.7029,-1.7566,,,,20.6,-0.126881,-0.208945,00111999100,3,100,12.2
IF000189,66562,2006/09/16 03:00:17,45.6963,-1.7620,,,,20.6,-0.119071,-0.208372,00111999100,5,100,12.2
IF000189,66562,2006/09/16 04:00:11,45.6897,-1.7654,,,,20.52,-0.073477,-0.204198,00111999100,3,100,12.2
IF000189,66562,2006/09/16 05:00:06,45.6846,-1.7688,,,,20.52,-0.073465,-0.157745,00111999100,3,100,12.2
IF000189,66562,2006/09/16 06:01:29,45.6800,-1.7725,,,,20.52,-0.078043,-0.13888,00111999100,3,100,12.2
IF000189,66562,2006/09/16 07:00:29,45.6765,-1.7730,,,,20.44,-0.010973,-0.109938,00111999100,3,100,12.2
IF000189,66562,2006/09/16 08:00:23,45.6727,-1.7745,,,,20.44,-0.032427,-0.117568,00111999100,6,100,12.2
IF000189,66562,2006/09/16 09:01:05,45.6679,-1.7760,,,,20.36,-0.032002,-0.14655,00111999100,3,100,12.2
IF000189,66562,2006/09/16 10:00:17,45.6638,-1.7766,,,,20.36,-0.013126,-0.12835,00111999100,3,100,12.2
IF000189,66562,2006/09/16 11:01:41,45.6595,-1.7758,,,,20.36,0.016876,-0.129788,00111999100,1,100,12.2
IF000189,66562,2006/09/16 12:00:59,45.6556,-1.7745,,,,20.28,0.028397,-0.121883,00111999100,7,100,12.2
IF000189,66562,2006/09/16 13:00:11,45.6492,-1.7741,,,,20.28,0.008753,-0.200351,00111999100,3,100,12.2
IF000189,66562,2006/09/16 14:01:41,45.6402,-1.7756,,,,20.28,-0.0316,-0.271207,00111999100,4,100,12.2
IF000189,66562,2006/09/16 15:00:12,45.6299,-1.7800,,,,20.28,-0.097437,-0.326206,00111999100,5,100,12.2
IF000189,66562,2006/09/16 16:00:17,45.6197,-1.7870,,,,20.2,-0.150999,-0.314615,00111999100,5,100,12.2
IF000189,66562,2006/09/16 17:01:05,45.6115,-1.7939,,,,20.2,-0.147112,-0.249945,00111999100,1,100,12.2
IF000189,66562,2006/09/16 18:00:11,45.6064,-1.7999,,,,20.2,-0.131619,-0.159925,00111999100,1,100,12.2
IF000189,66562,2006/09/16 19:00:24,45.6041,-1.8045,,,,20.12,-0.099043,-0.070786,00111999100,3,100,12.2
IF000189,66562,2006/09/16 20:01:11,45.6042,-1.8064,,,,20.12,-0.040528,0.003049,00111999100,4,100,12.2
IF000189,66562,2006/09/16 21:00:08,45.6057,-1.8046,,,,20.12,0.039589,0.047156,00111999100,1,100,12.2
IF000189,66562,2006/09/16 22:00:11,45.6065,-1.8012,,,,20.12,0.073408,0.024689,00111999100,1,100,12.2
IF000189,66562,2006/09/16 23:00:00,45.6070,-1.7981,,,,20.12,0.068058,0.015181,00111999100,1,100,12.2
IF000189,66562,2006/09/17 00:01:05,45.6055,-1.7914,,,,20.04,0.14136,-0.045206,00111999100,3,100,12.2
IF000189,66562,2006/09/17 01:00:17,45.6032,-1.7882,,,,20.04,0.070084,-0.072001,00111999100,7,100,12.2
IF000189,66562,2006/09/17 02:00:12,45.5988,-1.7881,,,,20.04,0.002164,-0.136094,00111999100,4,100,12.2
IF000189,66562,2006/09/17 03:00:12,45.5941,-1.7898,,,,20.04,-0.036741,-0.145171,00111999100,7,100,12.2
IF000189,66562,2006/09/17 04:00:41,45.5897,-1.7925,,,,20.04,-0.057891,-0.134819,00111999100,6,100,12.2
IF000189,66562,2006/09/17 05:00:11,45.5873,-1.7951,,,,20.04,-0.056672,-0.074753,00111999100,5,100,12.2
IF000189,66562,2006/09/17 06:00:11,45.5872,-1.7964,,,,20.04,-0.0281,-0.003089,00111999100,3,100,12.2
IF000189,66562,2006/09/17 07:00:11,45.5896,-1.7947,,,,20.04,0.036746,0.07413,00111999100,4,100,12.2
IF000189,66562,2006/09/17 08:00:41,45.5931,-1.7911,,,,20.04,0.077168,0.107213,00111999100,3,95,12.2
IF000189,66562,2006/09/17 09:00:11,45.5963,-1.7853,,,,20.04,0.126408,0.099671,00111999100,4,90,12.2
IF000189,66562,2006/09/17 10:00:11,45.5983,-1.7779,,,,20.12,0.159928,0.061775,00111999100,3,85,12.2
IF000189,66562,2006/09/17 11:00:11,45.5988,-1.7708,,,,20.28,0.153441,0.015444,00111999100,1,77,12.2
IF000189,66562,2006/09/17 12:00:40,45.5970,-1.7654,,,,20.28,0.11577,-0.055153,00111999100,11,100,12.2
IF000189,66562,2006/09/17 13:00:12,45.5944,-1.7626,,,,20.28,0.060989,-0.080937,00111999100,8,100,12.2